• In Lithuania
  • List of Countries
  • For 7 days
  • Water Temperature
  • Satellite Maps
  • Weather Map
  • Weather Widgets
  • user-avatar
    Login

    Hourly Weather Juticalpa

    Today, 24 February, Saturday

    Time Temperature Precipitation Wind Pressure Humidity
    00:00 +18°C° 0 mm 0 mps 730 mmHg 98%
    01:00 +18°C° 0 mm 0 mps 730 mmHg 98%
    02:00 +18°C° 0 mm 0 mps 729 mmHg 98%
    03:00 +18°C° 0 mm 0 mps 729 mmHg 98%
    04:00 +18°C° 0 mm 0 mps 729 mmHg 98%
    05:00 +17°C° 0 mm 0 mps 729 mmHg 98%
    06:00 +17°C° 0 mm 0 mps 729 mmHg 98%
    07:00 +19°C° 0 mm 0 mps 730 mmHg 90%
    08:00 +21°C° 0 mm 0 mps 730 mmHg 82%
    09:00 +23°C° 0 mm 0 mps 731 mmHg 74%
    10:00 +27°C° 0 mm 1 mps 730 mmHg 65%
    11:00 +29°C° 0 mm 1 mps 730 mmHg 56%
    12:00 +31°C° 0 mm 2 mps 729 mmHg 47%
    13:00 +30°C° 0.1 mm 2 mps 729 mmHg 48%
    14:00 +30°C° 0.1 mm 2 mps 728 mmHg 49%
    15:00 +30°C° 0.1 mm 2 mps 727 mmHg 49%
    16:00 +28°C° 0.2 mm 2 mps 727 mmHg 57%
    17:00 +27°C° 0.2 mm 1 mps 728 mmHg 65%
    18:00 +25°C° 0.2 mm 1 mps 728 mmHg 73%
    19:00 +23°C° 0.1 mm 1 mps 728 mmHg 79%
    20:00 +22°C° 0.1 mm 1 mps 729 mmHg 85%
    21:00 +21°C° 0.1 mm 1 mps 729 mmHg 92%
    22:00 +19°C° 0 mm 0 mps 729 mmHg 94%
    23:00 +18°C° 0 mm 0 mps 729 mmHg 96%

    Tomorrow, 25 February, Sunday

    Time Temperature Precipitation Wind Pressure Humidity
    00:00 +18°C° 0 mm 0 mps 729 mmHg 98%
    01:00 +18°C° 0 mm 0 mps 729 mmHg 98%
    02:00 +18°C° 0 mm 0 mps 729 mmHg 98%
    03:00 +18°C° 0 mm 0 mps 729 mmHg 98%
    04:00 +18°C° 0 mm 0 mps 729 mmHg 98%
    05:00 +18°C° 0 mm 0 mps 729 mmHg 97%
    06:00 +18°C° 0 mm 0 mps 729 mmHg 97%
    07:00 +20°C° 0 mm 0 mps 730 mmHg 87%
    08:00 +22°C° 0 mm 0 mps 730 mmHg 77%
    09:00 +26°C° 0 mm 1 mps 730 mmHg 67%
    10:00 +28°C° 0 mm 1 mps 730 mmHg 57%
    11:00 +30°C° 0 mm 2 mps 729 mmHg 46%
    12:00 +32°C° 0 mm 2 mps 729 mmHg 35%
    13:00 +32°C° 0 mm 2 mps 728 mmHg 35%
    14:00 +32°C° 0 mm 2 mps 728 mmHg 34%
    15:00 +32°C° 0 mm 2 mps 727 mmHg 34%
    16:00 +30°C° 0.1 mm 2 mps 727 mmHg 43%
    17:00 +28°C° 0.1 mm 2 mps 728 mmHg 53%
    18:00 +25°C° 0.1 mm 1 mps 728 mmHg 63%
    19:00 +24°C° 0.1 mm 1 mps 728 mmHg 72%
    20:00 +23°C° 0.1 mm 1 mps 729 mmHg 82%
    21:00 +21°C° 0.1 mm 1 mps 730 mmHg 91%
    22:00 +19°C° 0 mm 0 mps 730 mmHg 93%
    23:00 +18°C° 0 mm 0 mps 730 mmHg 95%

    Day after tomorrow, 26 February, Monday

    Time Temperature Precipitation Wind Pressure Humidity
    00:00 +18°C° 0 mm 0 mps 730 mmHg 97%
    01:00 +18°C° 0 mm 0 mps 729 mmHg 97%
    02:00 +18°C° 0 mm 0 mps 729 mmHg 97%
    03:00 +18°C° 0 mm 0 mps 729 mmHg 96%
    04:00 +18°C° 0 mm 0 mps 729 mmHg 96%
    05:00 +18°C° 0 mm 0 mps 729 mmHg 96%
    06:00 +18°C° 0 mm 0 mps 730 mmHg 97%
    07:00 +20°C° 0 mm 0 mps 730 mmHg 86%
    08:00 +22°C° 0 mm 0 mps 731 mmHg 75%
    09:00 +26°C° 0 mm 1 mps 731 mmHg 64%
    10:00 +28°C° 0 mm 1 mps 731 mmHg 56%
    11:00 +30°C° 0 mm 1 mps 730 mmHg 49%
    12:00 +32°C° 0 mm 2 mps 730 mmHg 41%
    13:00 +32°C° 0 mm 2 mps 729 mmHg 39%
    14:00 +32°C° 0 mm 2 mps 728 mmHg 37%
    15:00 +32°C° 0 mm 2 mps 728 mmHg 35%
    16:00 +30°C° 0.1 mm 2 mps 728 mmHg 45%
    17:00 +28°C° 0.1 mm 2 mps 728 mmHg 55%
    18:00 +26°C° 0.1 mm 2 mps 729 mmHg 66%
    19:00 +24°C° 0.1 mm 1 mps 729 mmHg 75%
    20:00 +23°C° 0.1 mm 1 mps 730 mmHg 84%
    21:00 +22°C° 0.1 mm 1 mps 730 mmHg 93%
    22:00 +19°C° 0 mm 0 mps 730 mmHg 95%
    23:00 +19°C° 0 mm 0 mps 730 mmHg 96%

    27 February, Tuesday

    Time Temperature Precipitation Wind Pressure Humidity
    00:00 +18°C° 0 mm 0 mps 730 mmHg 98%
    01:00 +18°C° 0 mm 0 mps 729 mmHg 98%
    02:00 +18°C° 0 mm 0 mps 729 mmHg 98%
    03:00 +18°C° 0 mm 0 mps 729 mmHg 98%
    04:00 +18°C° 0 mm 0 mps 729 mmHg 98%
    05:00 +18°C° 0 mm 0 mps 729 mmHg 98%
    06:00 +18°C° 0 mm 0 mps 730 mmHg 98%
    07:00 +20°C° 0 mm 0 mps 730 mmHg 89%
    08:00 +22°C° 0 mm 0 mps 731 mmHg 79%
    09:00 +26°C° 0 mm 1 mps 731 mmHg 70%
    10:00 +27°C° 0 mm 1 mps 731 mmHg 62%
    11:00 +29°C° 0 mm 2 mps 730 mmHg 55%
    12:00 +30°C° 0 mm 2 mps 729 mmHg 47%
    13:00 +31°C° 0 mm 2 mps 729 mmHg 45%
    14:00 +31°C° 0 mm 2 mps 728 mmHg 42%
    15:00 +32°C° 0 mm 2 mps 727 mmHg 40%
    16:00 +30°C° 0 mm 2 mps 727 mmHg 48%
    17:00 +28°C° 0 mm 1 mps 728 mmHg 56%
    18:00 +26°C° 0 mm 1 mps 728 mmHg 64%
    19:00 +24°C° 0.1 mm 1 mps 728 mmHg 71%
    20:00 +23°C° 0.1 mm 1 mps 729 mmHg 79%
    21:00 +22°C° 0.1 mm 1 mps 730 mmHg 86%
    22:00 +21°C° 0 mm 1 mps 729 mmHg 90%
    23:00 +19°C° 0 mm 0 mps 729 mmHg 93%

    28 February, Wednesday

    Time Temperature Precipitation Wind Pressure Humidity
    00:00 +18°C° 0 mm 0 mps 729 mmHg 97%
    01:00 +18°C° 0 mm 0 mps 729 mmHg 97%
    02:00 +18°C° 0 mm 0 mps 728 mmHg 97%
    03:00 +18°C° 0 mm 0 mps 728 mmHg 98%
    04:00 +17°C° 0 mm 0 mps 728 mmHg 98%
    05:00 +17°C° 0 mm 0 mps 728 mmHg 98%
    06:00 +17°C° 0 mm 0 mps 728 mmHg 98%
    07:00 +20°C° 0 mm 0 mps 729 mmHg 87%
    08:00 +22°C° 0 mm 0 mps 729 mmHg 75%
    09:00 +27°C° 0 mm 1 mps 730 mmHg 64%
    10:00 +28°C° 0 mm 1 mps 729 mmHg 57%
    11:00 +30°C° 0 mm 1 mps 728 mmHg 50%
    12:00 +31°C° 0 mm 2 mps 728 mmHg 43%
    13:00 +32°C° 0 mm 2 mps 727 mmHg 43%
    14:00 +32°C° 0 mm 2 mps 726 mmHg 43%
    15:00 +32°C° 0 mm 2 mps 725 mmHg 43%
    16:00 +30°C° 0 mm 2 mps 726 mmHg 50%
    17:00 +28°C° 0 mm 1 mps 726 mmHg 56%
    18:00 +26°C° 0 mm 1 mps 726 mmHg 62%
    19:00 +25°C° 0 mm 1 mps 727 mmHg 69%
    20:00 +23°C° 0 mm 1 mps 727 mmHg 75%
    21:00 +22°C° 0 mm 1 mps 728 mmHg 81%
    22:00 +21°C° 0 mm 1 mps 728 mmHg 86%
    23:00 +19°C° 0 mm 0 mps 728 mmHg 90%

    1 March, Thursday

    Time Temperature Precipitation Wind Pressure Humidity
    00:00 +18°C° 0 mm 0 mps 728 mmHg 94%
    01:00 +19°C° 0 mm 0 mps 727 mmHg 94%
    02:00 +19°C° 0 mm 0 mps 727 mmHg 95%
    03:00 +19°C° 0 mm 0 mps 727 mmHg 95%
    04:00 +19°C° 0 mm 0 mps 727 mmHg 96%
    05:00 +19°C° 0 mm 0 mps 727 mmHg 97%
    06:00 +18°C° 0 mm 0 mps 728 mmHg 98%
    07:00 +20°C° 0 mm 0 mps 728 mmHg 87%
    08:00 +24°C° 0 mm 1 mps 728 mmHg 76%
    09:00 +27°C° 0 mm 1 mps 729 mmHg 65%
    10:00 +29°C° 0 mm 1 mps 728 mmHg 55%
    11:00 +31°C° 0 mm 1 mps 728 mmHg 44%
    12:00 +34°C° 0 mm 2 mps 727 mmHg 33%
    13:00 +34°C° 0 mm 2 mps 727 mmHg 32%
    14:00 +34°C° 0 mm 2 mps 726 mmHg 32%
    15:00 +35°C° 0 mm 2 mps 725 mmHg 31%
    16:00 +31°C° 0 mm 2 mps 726 mmHg 38%
    17:00 +29°C° 0 mm 2 mps 726 mmHg 45%
    18:00 +27°C° 0 mm 1 mps 726 mmHg 52%
    19:00 +25°C° 0 mm 1 mps 727 mmHg 62%
    20:00 +24°C° 0 mm 1 mps 728 mmHg 72%
    21:00 +22°C° 0 mm 1 mps 728 mmHg 81%
    22:00 +22°C° 0 mm 1 mps 728 mmHg 86%
    23:00 +21°C° 0 mm 1 mps 728 mmHg 91%
    Show more